Location: Chippewa Lake
(41.0698°N, 81.9010°W)
Time: 05:16:35
(UTC+00:00)

SL-8 Rocket - Pass Details

Date: 29 September 2021
Orbit: 958 x 990 km, 82.9° (Epoch: 17 October)

Event Time Altitude Azimuth Distance (km) Brightness Sun altitude
Rises 23:54:41 0° 152° (SSE) 3,671 6.7 -8.5°
Reaches altitude 10° 23:57:32 10° 141° (SE) 2,732 5.9 -9.0°
Maximum altitude 00:02:42 28° 85° (E) 1,768 4.8 -10.0°
Drops below altitude 10° 00:07:54 10° 30° (NNE) 2,757 6.1 -11.0°
Sets 00:10:46 0° 19° (NNE) 3,712 6.9 -11.5°
